Location: �terpigny
(49.8910°N, 2.9249°E)
Time: 11:05:47
(UTC+00:00)

CENTAUR R/B - Pass Details

Date: 24 October 2021
Orbit: 728 x 1459 km, 63.4° (Epoch: 26 November)

Event Time Altitude Azimuth Distance (km) Brightness Sun altitude
Rises 17:57:59 0° 299° (WNW) 3,827 6.7 -13.3°
Reaches altitude 10° 18:00:51 10° 310° (NW) 2,987 5.8 -13.7°
Maximum altitude 18:07:10 31° 10° (N) 2,051 4.1 -14.7°
Enters shadow 18:12:34 16° 62° (ENE) 2,939 4.5 -15.6°
